一网星座-0552星 (ONEWEB-0552)

导读 | 豆包AI

ONEWEB-0552是英国OneWeb公司的近地轨道宽带通信卫星,于2023年3月26日由印度LVM3火箭搭载发射,属于OneWeb第一代低轨互联网星座组网任务中的卫星。该卫星单颗质量约150公斤,运行在近极轨道,使用Ku波段提供宽带服务,Ka波段连接地面网关。此次发射完成后,OneWeb第一代星座正式组网完成,超过提供全球服务所需的卫星门槛,为后续推出全球宽带服务奠定了硬件基础,主要面向企业、交通和政府部门提供服务。

基本信息
目录编号:
56054
目录名称:
ONEWEB-0552
国际标识:
2023-043J
轨道中心:
EARTH
卫星名称:
一网星座-0552星
卫星全名:
一网星座-0552星 (ONEWEB-0552)
卫星状态:
在轨 (已飞行1105 天)
发射日期:
2023-03-26 UTC
国别 :
英国 (GB)
星等 :
--
轨道信息
数据来源 国际轨道数据
星历时间: 2026-04-04T01:43:02+0800
9小时前
查看轨道信息
半长轴: 7556.066km
偏心率: 0.0002295
轨道倾角: 87.918°
近地点辐角 98.978°
升交点赤经 258.820°
平近点角 261.161°
近地点: 1176.194km
远地点: 1179.664km
周期: 108.944分钟
每日圈数: 13.217801
详细信息
平衡模式:
三轴稳定
覆盖范围:
全球
运营商:
一网卫星公司
运营商所在国:
英国
制造商(研发单位):
一网卫星公司
制造商所在国:
英国
使用方式:
暂无
卫星简介
OneWeb卫星网络由648颗重约125公斤的微型卫星组成,运行在1200公里的轨道上。 每颗卫星都能够提供至少每秒8千兆位的吞吐量,以使用其高吞吐量的Ku频段有效载荷为家庭和移动平台提供互联网接入。该卫星仍在工作。
2D轨道图
3D轨道图
轨道高度分析图
轨道倾角分析图
轨道综合分析图
查看轨道综合分析图